Location: *
(29.1167°S, 130.0000°E)
Time: 22:07:35
(UTC+00:00)

Cosmos 1725 Rocket - Pass Details

Date: 21 July 2019
Orbit: 962 x 991 km, 82.9° (Epoch: 20 August)

Event Time Altitude Azimuth Distance (km) Brightness Sun altitude
Rises 09:20:56 0° 178° (S) 3,682 6.8 -8.7°
Reaches altitude 10° 09:23:34 10° 171° (S) 2,732 6.1 -9.2°
Maximum altitude 09:29:33 46° 99° (E) 1,294 4.3 -10.5°
Drops below altitude 10° 09:35:30 10° 26° (NNE) 2,721 6.2 -11.7°
Sets 09:38:06 0° 20° (NNE) 3,666 7.0 -12.2°
